GSAT-17

Last updated on Tue Oct 28 2025 00:02:34 GMT+0000 (Coordinated Universal Time)

1 42815U 17040B 25300.54479640 -.00000247 00000+0 00000+0 0 9993 2 42815 0.0953 89.7452 0006299 166.0780 69.9938 1.00271705 30457
UTC large
Height (km)
Speed (km/s)
/
Latitude / Longitude
Inclination (degrees)
Orbital Period (minutes)
Azimuth
Elevation
Range (km)
Doppler Factor

Next 0 passes for location: London (51.5072 / 0.1276)

Sorry there are no passes over London.